Simultaneous Nadir Overpasses (SNOs) Predictions

Prediction of SNOs near US between NOAA-19 and NPP Satellite Orbit:

Table of predicted SNOs near US for the next 10.0 days since TLE Epoch: 1/31/2014
Index Date (NOAA-19) Time (NOAA-19) NOAA-19 Lat,Lon Date (NPP) Time (NPP) NPP Lat,Lon Distance(km) Time Diff (sec)
1 02/08/2014 18:29:46 49.95, -81.65 02/08/2014 18:26:19 49.40, -84.88 240.10 207
2 02/08/2014 20:11:50 49.95,-107.17 02/08/2014 20:07:49 49.40,-110.25 230.27 241
3 02/09/2014 10:19:09 20.15,-124.99 02/09/2014 10:10:35 20.44,-127.34 247.41 514




NCC Satellite Simultaneous Nadir Overpasses (SNOs) Prediction Service
